Hourly Data Report for October 14, 2014

All times are specified in Local Standard Time (LST). Add 1 hour to adjust for Daylight Saving Time where and when it is observed.

CLYDE RIVER A
NUNAVUT

70°29'09.000" N
68°31'01.000" W
26.50 m
2400804
71090
YCY

Download Data

Hourly Data (October 2014)
Hourly Data Report for October 14, 2014
Temp Definition
°C
Dew Point Temp Definition
°C
Rel Hum Definition
%
Wind Dir Definition
10's deg

Wind Spd Definition
km/h
Visibility Definition
km
Stn Press Definition
kPa
Hmdx Definition


Wind Chill Definition


Weather Definition


TIME
00:00 Legend Double Dagger -1.1 -1.9 94 LegendMM 4 4.8 100.87   -2 Snow
01:00 Legend Double Dagger -1.4 -1.7 98 34 5 6.4 100.87   -3 Snow
02:00 Legend Double Dagger -2.1 -2.3 98 35 4 6.4 100.87   -4 Fog
03:00 Legend Double Dagger -2.2 -2.5 98 34 4 12.9 100.88   -4 LegendNANA
04:00 Legend Double Dagger -2.8 -3.1 98 33 11 4.8 100.87   -7 Snow
05:00 Legend Double Dagger -1.7 -2.1 97 31 5 16.1 100.90   -4 LegendNANA
06:00 Legend Double Dagger -2.0 -2.8 94   0 16.1 100.91     LegendNANA
07:00 Legend Double Dagger -1.7 -2.8 92 LegendMM 4 16.1 100.92   -3 LegendNANA
08:00 Legend Double Dagger -3.8 -4.5 95 32 5 16.1 100.91   -6 LegendNANA
09:00 Legend Double Dagger -2.6 -3.3 95 3 4 16.1 100.94   -4 LegendNANA
10:00 Legend Double Dagger -2.4 -2.8 97 36 8 16.1 100.91   -6 LegendNANA
11:00 Legend Double Dagger -2.2 -2.5 98   0 8.1 100.90     Fog
12:00 Legend Double Dagger -2.4 -2.7 98 34 5 6.4 100.91   -4 Fog
13:00 Legend Double Dagger -2.2 -2.5 98 35 8 9.7 100.92   -5 Fog
14:00 Legend Double Dagger -2.1 -2.5 97 35 5 16.1 100.93   -4 LegendNANA
15:00 Legend Double Dagger -1.7 -2.1 97   0 12.9 100.95     LegendNANA
16:00 Legend Double Dagger -2.7 -3.1 97 35 8 16.1 100.93   -6 LegendNANA
17:00 Legend Double Dagger -2.1 -2.5 97 33 8 1.6 100.95   -5 Snow
18:00 Legend Double Dagger -1.8 -2.2 97 34 9 14.5 100.95   -5 Snow
19:00 Legend Double Dagger -1.9 -2.6 95 2 8 6.4 100.92   -5 Snow
20:00 Legend Double Dagger -2.4 -3.1 95 35 8 16.1 100.91   -6 LegendNANA
21:00 Legend Double Dagger -1.5 -2.6 92 1 5 16.1 100.86   -3 LegendNANA
22:00 Legend Double Dagger -1.5 -3.2 88 1 9 16.1 100.85   -5 LegendNANA
23:00 Legend Double Dagger -2.5 -2.9 97 36 13 16.1 100.82   -7 Snow

Notes on Data Quality.

Legend

  • E = Estimated
  • M = Missing
  • NA = Not Available
  • ‡ = Partner data that is not subject to review by the National Climate Archives
Date modified: